Home   Weather   Garbsen   Past weeks

Flag for Germany Past Weather in Garbsen, Lower Saxony, Germany — Yesterday and Last 2 Weeks

Now
39 °F

Sunny.


Feels Like: 34 °F
Forecast: 39 / 45 °F
Wind: 7 mph from South

Location: Hannover

Current Time: Dec 7, 2016 at 1:35:38 pm

Latest Report: Dec 7, 2016 at 1:20 pm


Visibility: 10 mi

Pressure: 30.39 "Hg

Humidity: 75%

Dew Point: 32 °F

Location of GarbsenLocation

Past Weather in Garbsen — Graph

°F

Garbsen Temperature Yesterday

Maximum temperature yesterday: 37 °F (at 12:50 pm)
Minimum temperature yesterday: 18 °F (at 4:50 am)
Average temperature yesterday: 27 °F

High & Low Weather Summary for the Past Weeks

 TemperatureHumidityPressure
High57 °F (Nov 22, 12:20 pm)100% (Nov 23, 8:20 am)30.60 "Hg (Nov 23, 8:20 am)
Low18 °F (Nov 29, 4:50 am)49% (Dec 5, 12:50 pm)29.86 "Hg (Nov 22, 12:20 pm)
Average35 °F87%30.27 "Hg
* Reported Nov 22 12:20 pm — Dec 7 12:20 pm, Garbsen, Weather by CustomWeather, © 2016

Note: Actual official high and low records may vary slightly from our data, if they occured in-between our weather recording intervals... More about our weather records

Advertising

Garbsen Weather History for the Previous 24 Hours

Scroll right to see more
 ConditionsComfort  
Time TempWeatherWind HumidityBarometerVisibility
12:20 pm
Wed, Dec 7
37 °FSunny.8 mph75%30.39 "Hg10 mi
11:50 am36 °FSunny.8 mph81%30.42 "Hg10 mi
11:20 am34 °FSunny.7 mph81%30.42 "Hg10 mi
10:50 am34 °FSunny.9 mph81%30.42 "Hg10 mi
10:20 am34 °FSunny.10 mph81%30.42 "Hg10 mi
9:50 am32 °FSunny.8 mph87%30.42 "Hg10 mi
9:20 am32 °FSunny.9 mph80%30.42 "Hg10 mi
8:50 am30 °FSunny.9 mph86%30.42 "Hg10 mi
8:20 am30 °FSunny.7 mph86%30.42 "Hg10 mi
7:50 am30 °FClear.6 mph86%30.42 "Hg10 mi
7:20 am30 °FClear.6 mph86%30.42 "Hg10 mi
6:50 am28 °FClear.6 mph93%30.45 "Hg10 mi
6:20 am28 °FClear.7 mph86%30.45 "Hg10 mi
5:50 am28 °FClear.7 mph86%30.45 "Hg10 mi
5:20 am28 °FClear.8 mph80%30.45 "Hg10 mi
4:50 am28 °FClear.7 mph80%30.45 "Hg10 mi
4:20 am28 °FClear.7 mph86%30.48 "Hg10 mi
3:50 am30 °FClear.8 mph80%30.48 "Hg10 mi
3:20 am28 °FClear.7 mph86%30.48 "Hg10 mi
2:50 am28 °FClear.8 mph80%30.48 "Hg10 mi
2:20 am28 °FClear.8 mph80%30.48 "Hg10 mi
1:50 am28 °FClear.9 mph80%30.48 "Hg10 mi
1:20 am28 °FClear.12 mph80%30.48 "Hg10 mi
12:50 am30 °FClear.6 mph75%30.51 "Hg10 mi
12:20 am30 °FPassing clouds.7 mph80%30.51 "HgN/A
11:50 pm
Tue, Dec 6
28 °FClear.10 mph86%30.48 "Hg10 mi
11:20 pm28 °FClear.7 mph80%30.51 "Hg10 mi
10:50 pm27 °FClear.6 mph86%30.51 "Hg10 mi
10:20 pm27 °FClear.7 mph86%30.51 "Hg10 mi
9:50 pm27 °FClear.5 mph86%30.51 "Hg10 mi
9:20 pm28 °FClear.7 mph80%30.51 "Hg10 mi
8:50 pm28 °FClear.6 mph80%30.51 "Hg10 mi
8:20 pm28 °FClear.7 mph86%30.51 "Hg10 mi
7:50 pm28 °FClear.7 mph86%30.51 "Hg10 mi
6:50 pm28 °FPassing clouds.5 mph86%30.51 "HgN/A
6:20 pm30 °FPassing clouds.6 mph80%30.51 "HgN/A
5:50 pm30 °FPassing clouds.3 mph80%30.51 "HgN/A
5:20 pm30 °FPassing clouds.3 mph86%30.51 "HgN/A
4:50 pm32 °FPassing clouds.5 mph80%30.48 "HgN/A
4:20 pm34 °FPassing clouds.6 mph75%30.48 "HgN/A
3:50 pm36 °FPassing clouds.3 mph70%30.48 "HgN/A
3:20 pm37 °FPassing clouds.5 mph70%30.48 "HgN/A
2:50 pm37 °FPassing clouds.6 mph70%30.48 "HgN/A
2:20 pm37 °FPassing clouds.7 mph70%30.48 "HgN/A
1:50 pm37 °FScattered clouds.6 mph65%30.45 "HgN/A
1:20 pm37 °FScattered clouds.3 mph65%30.48 "HgN/A
Weather by CustomWeather, © 2016

See weather overviewHow to use our weather pages